{"data":{"norad_id":47143,"intl_designator":"2020-088X","name":"STARLINK-1856","alt_names":[],"object_type":"PAYLOAD","status":"ACTIVE","operator":null,"country":"US","launch_date":"2020-11-25","launch_site_code":"AFETR","launch_vehicle":null,"mission":null,"orbit_class":"UNKNOWN","rcs_meters":null,"size_class":null,"mass_kg":null,"dimensions":null,"purposes":["comms"],"wikipedia_slug":null,"has_3d_model":false,"image_url":null,"decayed_at":null,"tle_current":{"epoch":"2026-09-20T06:00:02.000160Z","epoch_age_seconds":47440,"freshness":"FRESH","line1":"1 47143U 20088X   26263.25002315  .00454878  10007-3  87442-3 0  9999","line2":"2 47143  53.0346  30.1162 0008002 325.7951   1.4132 15.99888469  6023","mean_motion":15.99888469,"eccentricity":0.0008002,"inclination_deg":53.0346,"raan_deg":30.1162,"arg_perigee_deg":325.7951,"mean_anomaly_deg":1.4132,"bstar":0.00087442,"rev_number":602,"period_min":90.006274056095,"perigee_km":269.40424939569,"apogee_km":280.05149433663,"semimajor_km":6652.8648718662,"source":"CELESTRAK","updated_at":"2026-09-20T09:00:38.587704Z"}}}